Regional Weather Roundup
Issued by NWS

Home | Current Version | Previous Version | Graphics & Text | Print | Product List | Glossary On
Versions: 1 2 3 4 5 6 7 8 9 10 11 12 13 14 15 16 17 18 19 20 21 22 23 24 25 26 27 28 29 30 31 32 33 34 35 36 37 38 39 40 41 42 43 44 45 46 47 48 49 50
000
ASUS45 KABQ 210610
RWRNM
NEW MEXICO REGIONAL WEATHER ROUNDUP
NATIONAL WEATHER SERVICE ALBUQUERQUE NM
1100 PM MST SAT JAN 20 2018

NOTE: "FAIR" MEANS FEW OR NO CLOUDS BELOW 12,000 FEET AGL WITH NO
       SIGNIFICANT WEATHER OR OBSTRUCTIONS TO VISION.

      THIS PRODUCT IS RELEASED AS TWO VERSIONS.  ONE VERSION NEAR
      THE TOP OF THE HOUR CONTAINING PRELIMINARY DATA FROM ALBUQUERQUE
      AND OTHER STATIONS.  A FINAL VERSION WITH ADDITIONAL DATA IS
      ISSUED ABOUT 10 MINUTES AFTER THE HOUR.

NMZ501-503-504-510>518-210700-
NORTHWEST PLATEAU/NORTHCENTRAL MOUNTAINS

CITY           SKY/WX    TMP DP  RH WIND       PRES   REMARKS
FARMINGTON     FAIR      33  33 100 E6        29.79F WCI  28
6HR MIN TEMP:  32; 6HR MAX TEMP:  50; 6HR PCP:  0.08;

LOS ALAMOS     DRIZZLE   41  29  60 S13G30    29.78R
SANTA FE       CLOUDY    47  24  40 SW23G32   29.74F
6HR MIN TEMP:  40; 6HR MAX TEMP:  50;

TAOS           RAIN      39  27  60 W37G52    29.76F SQUALL  WCI  26
ANGEL FIRE     MOCLDY    37  23  57 SW10      29.78F WCI  29

$$
NMZ402-403-502-505>509-210700-
WESTCENTRAL MOUNTAINS/SOUTHWEST MOUNTAINS

CITY           SKY/WX    TMP DP  RH WIND       PRES   REMARKS
GALLUP         LGT SNOW  27  24  89 S9        29.86R FOG     WCI  18
6HR MIN TEMP:  26; 6HR MAX TEMP:  42; 6HR PCP:  0.06;

GRANTS         FLURRIES  31  28  88 CALM      29.89S
SILVER CITY    CLOUDY    36  33  89 NW16      29.94R WCI  26

$$
NMZ407-409-411-412-210700-
SOUTHERN DESERTS

CITY           SKY/WX    TMP DP  RH WIND       PRES   REMARKS
DEMING         MOCLDY    45  34  65 W20G26    29.91R
6HR MIN TEMP:  45; 6HR MAX TEMP:  64;

LAS CRUCES     CLOUDY    54  30  39 W18G25    29.90R
HOLLOMAN AFB   MOCLDY    52  20  29 SE13      29.85S
ALAMOGORDO     CLOUDY    57  21  24 S18       29.85S
T OR C         MOCLDY    53  30  41 SW26G36   29.83R
6HR MIN TEMP:  53; 6HR MAX TEMP:  63;


$$
NMZ519>523-210700-
CENTRAL VALLEYS/CENTRAL HIGHLANDS

CITY           SKY/WX    TMP DP  RH WIND       PRES   REMARKS
ALBUQUERQUE    LGT RAIN  40  32  73 W23G33    29.82R WCI  30
6HR MIN TEMP:  40; 6HR MAX TEMP:  58; 6HR PCP: TRACE;

MORIARTY ARPT  FAIR      46  24  43 S21       29.78F
6HR MIN TEMP:  37; 6HR MAX TEMP:  54;

CLINES CORNERS FAIR      42  21  43 SW33G46   29.77
6HR MIN TEMP:  35; 6HR MAX TEMP:  49;

BELEN          LGT RAIN  41  32  69 NW15G21   29.83R
6HR MIN TEMP:  41; 6HR MAX TEMP:  61;

SOCORRO        CLOUDY    54  23  30 S22G39    29.78R
6HR MIN TEMP:  49; 6HR MAX TEMP:  63;


$$
NMZ524>526-539-540-210700-
SOUTHCENTRAL MOUNTAINS

CITY           SKY/WX    TMP DP  RH WIND       PRES   REMARKS
RUIDOSO        FAIR      46  19  34 SW29G44   29.84F

$$
NMZ527>531-210700-
NORTHEAST HIGHLANDS/NORTHEAST PLAINS

CITY           SKY/WX    TMP DP  RH WIND       PRES   REMARKS
LAS VEGAS      CLOUDY    40  18  41 S12       29.77F WCI  33
6HR MIN TEMP:  36; 6HR MAX TEMP:  52;

RATON          FAIR      37  14  38 S6        29.73S WCI  32
6HR MIN TEMP:  35; 6HR MAX TEMP:  57;

CLAYTON        FAIR      44  15  31 W12       29.71F
6HR MIN TEMP:  42; 6HR MAX TEMP:  58;


$$
NMZ532>537-210700-
EASTCENTRAL PLAINS

CITY           SKY/WX    TMP DP  RH WIND       PRES   REMARKS
TUCUMCARI      FAIR      50  17  27 SW12      29.71F
6HR MIN TEMP:  45; 6HR MAX TEMP:  66;

CANNON AFB     FAIR      44  17  33 SW12      29.79F
6HR MIN TEMP:  41; 6HR MAX TEMP:  60;

CLOVIS AIRPORT FAIR      40  17  39 W3        29.80F

$$
NMZ028-029-538-210700-
SOUTHEAST PLAINS

CITY           SKY/WX    TMP DP  RH WIND       PRES   REMARKS
ROSWELL        FAIR      53  19  26 S13       29.78F
6HR MIN TEMP:  53; 6HR MAX TEMP:  72;

ARTESIA        FAIR      50  19  29 SW13      29.81S
CARLSBAD       FAIR      50  21  32 S10       29.79F
6HR MIN TEMP:  38; 6HR MAX TEMP:  66;

HOBBS          FAIR      39  12  33 W6        29.83F WCI  35


$$




USA.gov is the U.S. government's official web portal to all federal, state and local government web resources and services.